DW4821 Weather Reports


time (UTC)temp
C
wind
direction
speed
KPH
gust
KPH
rain 1hr
cm
rain 24hr
cm
rain mn
cm
humidity
%
barometer
mb
20260906224530 17 63 8.0 19.3 0.00 0.13 0.00 76 1010.2
20260906223028 16 14 6.4 16.1 0.00 0.13 0.00 77 1010.2
20260906221526 16 9 8.0 16.1 0.00 0.13 0.00 77 1010.4
20260906220025 16 26 11.3 17.7 0.00 0.13 0.00 77 1010.4
20260906214536 16 15 11.3 20.9 0.00 0.13 0.00 77 1010.3
20260906213027 16 19 12.9 27.4 0.00 0.13 0.00 77 1010.3
20260906211523 16 64 14.5 22.5 0.00 0.13 0.00 75 1010.2
20260906210039 16 21 9.7 20.9 0.00 0.13 0.00 76 1010.3
20260906204522 16 36 12.9 19.3 0.00 0.13 0.00 77 1010.3
20260906203022 16 357 11.3 27.4 0.00 0.13 0.00 78 1010.3
20260906201521 16 29 14.5 25.7 0.00 0.13 0.00 77 1010.4
20260906200021 16 2 12.9 30.6 0.00 0.13 0.00 76 1010.5
20260906194521 16 5 16.1 27.4 0.00 0.13 0.00 74 1010.4
20260906193021 16 2 14.5 29.0 0.00 0.13 0.00 73 1010.3
20260906191519 16 8 19.3 33.8 0.00 0.13 0.00 73 1010.1
20260906190024 16 35 17.7 33.8 0.00 0.13 0.00 73 1010.1
20260906184515 15 35 20.9 35.4 0.00 0.13 0.00 72 1010.2
20260906183014 15 46 20.9 40.2 0.00 0.13 0.00 72 1010.6
20260906181523 15 354 17.7 29.0 0.00 0.13 0.00 73 1010.8
20260906180006 13 4 16.1 33.8 0.00 0.13 0.00 80 1010.9
20260906174506 13 356 6.4 19.3 0.00 0.13 0.00 80 1012.1
20260906173004 13 11 19.3 30.6 0.00 0.13 0.00 79 1012.3
20260906171503 13 20 14.5 29.0 0.00 0.13 0.00 81 1012.0
20260906170003 13 5 12.9 24.1 0.00 0.13 0.00 81 1012.2
20260906164503 13 349 12.9 27.4 0.00 0.13 0.00 82 1012.2
20260906163001 13 360 16.1 30.6 0.00 0.13 0.00 82 1012.0
20260906161600 13 46 12.9 29.0 0.00 0.13 0.00 84 1011.9
20260906160058 13 9 9.7 20.9 0.00 0.13 0.00 84 1012.4
20260906154559 14 86 6.4 16.1 0.00 0.13 0.00 86 1012.5
20260906153100 13 79 6.4 14.5 0.00 0.13 0.00 87 1012.6
20260906151602 12 343 9.7 25.7 0.00 0.13 0.00 88 1012.7
20260906150056 13 302 19.3 37.0 0.00 0.13 0.00 85 1013.2
20260906144559 13 44 9.7 19.3 0.00 0.15 0.00 89 1012.7
20260906143108 13 17 16.1 24.1 0.00 0.15 0.00 89 1012.5
20260906141555 13 61 8.0 16.1 0.00 0.15 0.00 89 1012.8
20260906140052 13 54 11.3 22.5 0.00 0.15 0.00 89 1012.5
20260906134553 13 38 16.1 29.0 0.00 0.20 0.00 90 1012.3
20260906133055 13 53 14.5 20.9 0.00 0.20 0.00 92 1012.3
20260906131555 12 30 11.3 19.3 0.00 0.20 0.00 92 1012.5
20260906130048 12 35 12.9 24.1 0.00 0.20 0.00 92 1012.7
20260906124548 12 20 12.9 27.4 0.00 0.20 0.00 92 1012.7
20260906123044 12 41 14.5 22.5 0.00 0.20 0.00 92 1012.5
20260906121545 12 23 12.9 24.1 0.00 0.20 0.00 91 1012.8
20260906120043 12 34 11.3 22.5 0.00 0.20 0.00 91 1013.2
20260906114542 12 42 12.9 19.3 0.00 0.20 0.00 91 1013.3
20260906113046 12 13 12.9 24.1 0.00 0.20 0.00 92 1013.0
20260906111541 12 22 11.3 22.5 0.00 0.20 0.00 91 1013.0
20260906110040 12 42 14.5 29.0 0.00 0.20 0.00 90 1012.9
20260906104539 12 38 11.3 27.4 0.00 0.20 0.00 90 1013.0
20260906103038 12 32 14.5 29.0 0.00 0.20 0.00 90 1013.1
20260906101540 12 19 14.5 24.1 0.00 0.20 0.00 91 1013.3
20260906100037 12 25 16.1 30.6 0.00 0.20 0.00 92 1013.1
20260906094537 12 36 17.7 29.0 0.00 0.20 0.00 92 1012.9
20260906093033 12 360 17.7 29.0 0.00 0.20 0.00 92 1013.2
20260906091531 12 12 17.7 33.8 0.00 0.20 0.00 92 1013.6
20260906090029 12 28 14.5 29.0 0.00 0.20 0.00 92 1013.7
20260906084528 12 27 17.7 35.4 0.00 0.20 0.00 92 1013.7
20260906083027 12 34 12.9 30.6 0.00 0.20 0.00 91 1013.8
20260906081533 12 10 19.3 32.2 0.00 0.20 0.00 90 1013.6
20260906080020 12 17 16.1 29.0 0.00 0.20 0.00 88 1013.6
20260906074517 12 19 17.7 32.2 0.00 0.20 0.00 88 1013.4
20260906073013 12 350 16.1 27.4 0.00 0.20 0.00 87 1013.7
20260906071510 13 5 19.3 33.8 0.00 0.20 0.00 87 1013.9
20260906070009 13 43 16.1 25.7 0.00 0.20 0.00 87 1014.2
20260906064505 13 32 16.1 29.0 0.00 0.20 0.00 87 1014.5
20260906063003 13 29 16.1 29.0 0.00 0.20 0.00 87 1014.5
20260906061502 13 19 14.5 24.1 0.00 0.20 0.00 88 1014.8
20260906060059 12 12 14.5 27.4 0.03 0.20 0.00 88 1014.5
20260906054559 12 31 14.5 29.0 0.03 0.20 0.20 88 1014.4
20260906053059 12 16 14.5 33.8 0.03 0.20 0.20 88 1014.4
20260906051558 12 32 14.5 35.4 0.05 0.20 0.20 87 1014.3
20260906050116 12 19 14.5 20.9 0.03 0.18 0.18 86 1015.5
20260906044556 12 2 17.7 33.8 0.03 0.18 0.18 86 1014.2
20260906043108 12 18 20.9 32.2 0.10 0.18 0.18 87 1013.8
20260906041556 12 32 14.5 27.4 0.08 0.15 0.15 87 1013.7
20260906040058 12 31 16.1 32.2 0.08 0.15 0.15 85 1013.8
20260906034555 13 25 17.7 30.6 0.08 0.15 0.15 80 1014.2
20260906033053 14 10 16.1 25.7 0.00 0.08 0.08 74 1015.1
20260906031552 14 17 17.7 30.6 0.00 0.08 0.08 74 1013.5
20260906030100 14 31 22.5 37.0 0.00 0.08 0.08 74 1013.1
20260906024550 14 29 17.7 30.6 0.00 0.08 0.08 72 1012.6
20260906023052 14 48 19.3 33.8 0.00 0.08 0.08 71 1012.6
20260906021606 15 4 17.7 30.6 0.00 0.08 0.08 70 1012.5
20260906020048 15 37 19.3 33.8 0.00 0.08 0.08 69 1012.7
20260906014548 15 2 14.5 29.0 0.00 0.08 0.08 67 1012.7
20260906013048 16 14 14.5 37.0 0.00 0.08 0.08 65 1012.4
20260906011547 16 5 16.1 27.4 0.00 0.08 0.08 65 1012.3
20260906010047 16 360 14.5 32.2 0.00 0.08 0.08 63 1012.3
20260906004547 17 17 17.7 30.6 0.00 0.08 0.08 61 1012.4
20260906003055 18 28 16.1 29.0 0.00 0.08 0.08 58 1012.6
20260906001547 18 13 16.1 30.6 0.00 0.08 0.08 59 1012.4
20260906000046 18 323 14.5 30.6 0.00 0.08 0.08 59 1012.9
20260905234553 18 40 14.5 25.7 0.00 0.08 0.08 57 1012.8
20260905233045 19 346 9.7 25.7 0.00 0.08 0.08 57 1012.8
20260905231544 19 52 12.9 27.4 0.00 0.08 0.08 55 1012.6
20260905230045 20 7 12.9 27.4 0.00 0.08 0.08 53 1012.4